Home > Weather > Zwettl > Past weeks

Flag for Austria Past Weather in Zwettl, Lower Austria, Austria — Yesterday and Last 2 Weeks

Now
71 °F

Mild.


Feels Like: 70 °F
Forecast: 58 / 78 °F
Wind: 2 mph from Northwest

Location: Retz

Current Time: Jul 24, 2016 at 10:56:01 AM

Latest Report: Jul 24, 2016 at 10:00 AM


Visibility: N/A

Pressure: 30.03 "Hg (28.25 "Hg at 524m altitude)

Humidity: 83%

Dew Point: 65 °F

Location of ZwettlLocation

Past Weather in Zwettl — Graph

°F

Zwettl Temperature Yesterday

Maximum temperature yesterday: 84 °F (at 5:00 PM)
Minimum temperature yesterday: 67 °F (at 5:00 AM)
Average temperature yesterday: 75 °F

High & Low Weather Summary for the Past Weeks

 TemperatureHumidityPressure
High93 °F (Jul 11, 4:00 PM)98% (Jul 22, 2:00 AM)30.23 "Hg (Jul 22, 2:00 AM)
Low52 °F (Jul 15, 5:00 AM)35% (Jul 9, 5:00 PM)29.74 "Hg (Jul 14, 9:00 AM)
Average69 °F69%30.00 "Hg
* Reported Jul 9 9:00 AM — Jul 24 9:00 AM, Zwettl, Weather by CustomWeather, © 2016

Note: Actual official high and low records may vary slightly from our data, if they occured in-between our weather recording intervals... More about our weather records

Advertising

Zwettl Weather History for the Previous 24 Hours

Scroll right to see more
 ConditionsComfort  
Time TempWeatherWind HumidityBarometerVisibility
9:00 AM
Sun, Jul 24
70 °FMild.2 mph87%30.03 "HgN/A
8:00 AM68 °FPartly sunny.2 mph93%30.02 "Hg8 mi
7:00 AM66 °FScattered clouds.2 mph97%30.02 "Hg8 mi
6:00 AM66 °FMild.1 mph95%30.02 "HgN/A
5:00 AM66 °FMild.1 mph95%30.01 "HgN/A
4:00 AM66 °FMild.1 mph95%30.02 "HgN/A
3:00 AM67 °FMild.3 mph91%30.01 "HgN/A
2:00 AM73 °FMild.3 mph60%29.99 "HgN/A
1:00 AM72 °FMild.3 mph70%29.98 "HgN/A
12:00 AM73 °FMild.3 mph69%29.98 "HgN/A
11:00 PM
Sat, Jul 23
74 °FMild.2 mph66%29.97 "HgN/A
10:00 PM75 °FMild.3 mph64%29.97 "HgN/A
9:00 PM76 °FMild.3 mph65%29.96 "HgN/A
8:00 PM80 °FPassing clouds.2 mph60%29.94 "Hg11 mi
7:00 PM82 °FWarm.5 mph55%29.94 "HgN/A
6:00 PM81 °FWarm.3 mph58%29.94 "HgN/A
5:00 PM84 °FWarm.2 mph53%29.96 "HgN/A
4:00 PM81 °FWarm.2 mph55%29.96 "HgN/A
3:00 PM80 °FWarm.2 mph60%29.98 "HgN/A
2:00 PM83 °FScattered clouds.2 mph55%29.98 "Hg17 mi
1:00 PM78 °FWarm.2 mph64%29.99 "HgN/A
12:00 PM78 °FWarm.1 mph66%29.99 "HgN/A
11:00 AM76 °FMild.2 mph67%30.00 "HgN/A
10:00 AM73 °FMild.2 mph70%30.01 "HgN/A
Weather by CustomWeather, © 2016

See weather overviewHow to use our weather pages